Location: Kershaw
(34.5481°N, 80.5823°W)
Time: 20:11:46
(UTC+00:00)

Transit 4A - Pass Details

Date: 09 October 2022
Orbit: 871 x 972 km, 66.8° (Epoch: 01 December)

Event Time Altitude Azimuth Distance (km) Brightness Sun altitude
Rises 02:33:01 0° 232° (SW) 3,608 11.2 -44.1°
Enters shadow 02:34:11 - 235° (SW) 3,203 10.9 -44.3°
Reaches altitude 10° 02:35:51 10° 242° (WSW) 2,651 - -44.6°
Maximum altitude 02:41:18 32° 304° (NW) 1,530 - -45.6°
Drops below altitude 10° 02:46:40 10° 7° (N) 2,598 - -46.5°
Sets 02:49:26 0° 17° (NNE) 3,526 - -47.0°
